Location: Bucaral
(10.5128°N, 67.0901°W)
Time: 09:18:42
(UTC+00:00)

ATLAS 3B R/B - Pass Details

Date: 18 April 2024
Orbit: 943 x 1251 km, 63.8° (Epoch: 24 May)

Event Time Altitude Azimuth Distance (km) Brightness Sun altitude
Rises 23:38:47 0° 226° (SW) 3,692 6.0 -15.0°
Reaches altitude 10° 23:41:34 10° 235° (SW) 2,781 5.4 -15.7°
Maximum altitude 23:47:19 32° 297° (WNW) 1,711 4.5 -17.1°
Drops below altitude 10° 23:53:28 10° 358° (N) 2,971 5.2 -18.5°
Sets 23:56:34 0° 8° (N) 3,980 5.8 -19.2°
